• In Hungary
  • List of Countries
  • For 7 days
  • Water Temperature
  • Satellite Maps
  • Weather Map
  • News
  • Weather Widgets
  • user-avatar
    Login

    Hourly Weather Horodok

    Today, 20 October, Friday

    Time Temperature Precipitation Wind Pressure Humidity
    00:00 +15°C° 0 mm 1 mps 743 mmHg 73%
    01:00 +14°C° 0 mm 2 mps 743 mmHg 76%
    02:00 +14°C° 0 mm 2 mps 743 mmHg 80%
    03:00 +13°C° 0 mm 2 mps 743 mmHg 83%
    04:00 +13°C° 0 mm 2 mps 743 mmHg 86%
    05:00 +12°C° 0 mm 2 mps 744 mmHg 89%
    06:00 +11°C° 0 mm 3 mps 744 mmHg 88%
    07:00 +11°C° 0 mm 3 mps 744 mmHg 87%
    08:00 +12°C° 0 mm 3 mps 744 mmHg 86%
    09:00 +13°C° 0 mm 3 mps 745 mmHg 79%
    10:00 +16°C° 0 mm 3 mps 745 mmHg 72%
    11:00 +18°C° 0 mm 3 mps 745 mmHg 65%
    12:00 +18°C° 0 mm 3 mps 745 mmHg 63%
    13:00 +19°C° 0 mm 3 mps 745 mmHg 61%
    14:00 +19°C° 0 mm 3 mps 745 mmHg 59%
    15:00 +18°C° 0 mm 3 mps 745 mmHg 63%
    16:00 +17°C° 0 mm 3 mps 745 mmHg 68%
    17:00 +16°C° 0 mm 2 mps 745 mmHg 73%
    18:00 +15°C° 0 mm 2 mps 745 mmHg 76%
    19:00 +14°C° 0 mm 2 mps 745 mmHg 78%
    20:00 +13°C° 0 mm 2 mps 746 mmHg 81%
    21:00 +12°C° 0 mm 2 mps 746 mmHg 82%
    22:00 +12°C° 0 mm 2 mps 746 mmHg 83%
    23:00 +12°C° 0 mm 2 mps 746 mmHg 83%

    Tomorrow, 21 October, Saturday

    Time Temperature Precipitation Wind Pressure Humidity
    00:00 +10°C° 0 mm 2 mps 746 mmHg 84%
    01:00 +10°C° 0 mm 2 mps 746 mmHg 85%
    02:00 +9°C° 0 mm 2 mps 746 mmHg 85%
    03:00 +9°C° 0 mm 2 mps 746 mmHg 86%
    04:00 +9°C° 0 mm 2 mps 745 mmHg 87%
    05:00 +9°C° 0 mm 2 mps 745 mmHg 88%
    06:00 +9°C° 0 mm 2 mps 745 mmHg 85%
    07:00 +9°C° 0 mm 2 mps 745 mmHg 83%
    08:00 +9°C° 0 mm 2 mps 746 mmHg 81%
    09:00 +12°C° 0 mm 2 mps 745 mmHg 75%
    10:00 +13°C° 0 mm 2 mps 745 mmHg 69%
    11:00 +15°C° 0 mm 2 mps 745 mmHg 63%
    12:00 +15°C° 0 mm 2 mps 745 mmHg 61%
    13:00 +16°C° 0 mm 1 mps 744 mmHg 58%
    14:00 +18°C° 0 mm 1 mps 744 mmHg 56%
    15:00 +16°C° 0 mm 1 mps 744 mmHg 59%
    16:00 +16°C° 0 mm 1 mps 743 mmHg 62%
    17:00 +15°C° 0 mm 1 mps 743 mmHg 65%
    18:00 +14°C° 0.1 mm 2 mps 743 mmHg 66%
    19:00 +14°C° 0.1 mm 2 mps 743 mmHg 68%
    20:00 +14°C° 0.1 mm 2 mps 743 mmHg 70%
    21:00 +13°C° 0.4 mm 2 mps 743 mmHg 73%
    22:00 +13°C° 0.4 mm 2 mps 743 mmHg 75%
    23:00 +13°C° 0.4 mm 2 mps 742 mmHg 78%

    Day after tomorrow, 22 October, Sunday

    Time Temperature Precipitation Wind Pressure Humidity
    00:00 +12°C° 0.4 mm 2 mps 742 mmHg 80%
    01:00 +12°C° 0.4 mm 2 mps 743 mmHg 83%
    02:00 +12°C° 0.4 mm 2 mps 743 mmHg 85%
    03:00 +10°C° 0.2 mm 3 mps 743 mmHg 85%
    04:00 +9°C° 0.2 mm 3 mps 742 mmHg 85%
    05:00 +8°C° 0.2 mm 4 mps 742 mmHg 86%
    06:00 +8°C° 0 mm 4 mps 743 mmHg 84%
    07:00 +8°C° 0 mm 3 mps 743 mmHg 82%
    08:00 +8°C° 0 mm 3 mps 743 mmHg 81%
    09:00 +9°C° 0 mm 3 mps 744 mmHg 77%
    10:00 +10°C° 0 mm 3 mps 744 mmHg 73%
    11:00 +10°C° 0 mm 3 mps 744 mmHg 69%
    12:00 +11°C° 0 mm 3 mps 744 mmHg 66%
    13:00 +11°C° 0 mm 3 mps 744 mmHg 63%
    14:00 +12°C° 0 mm 3 mps 744 mmHg 60%
    15:00 +11°C° 0 mm 3 mps 744 mmHg 62%
    16:00 +12°C° 0 mm 2 mps 744 mmHg 64%
    17:00 +12°C° 0 mm 2 mps 744 mmHg 65%
    18:00 +10°C° 0 mm 2 mps 744 mmHg 66%
    19:00 +10°C° 0 mm 3 mps 745 mmHg 66%
    20:00 +9°C° 0 mm 3 mps 745 mmHg 66%
    21:00 +9°C° 0 mm 3 mps 745 mmHg 66%
    22:00 +9°C° 0 mm 3 mps 745 mmHg 66%
    23:00 +7°C° 0 mm 4 mps 745 mmHg 66%

    23 October, Monday

    Time Temperature Precipitation Wind Pressure Humidity
    00:00 +8°C° 0 mm 3 mps 745 mmHg 67%
    01:00 +7°C° 0 mm 3 mps 745 mmHg 68%
    02:00 +7°C° 0 mm 3 mps 745 mmHg 69%
    03:00 +6°C° 0 mm 4 mps 744 mmHg 68%
    04:00 +6°C° 0 mm 4 mps 744 mmHg 66%
    05:00 +6°C° 0 mm 4 mps 744 mmHg 65%
    06:00 +6°C° 0 mm 4 mps 744 mmHg 64%
    07:00 +7°C° 0 mm 5 mps 744 mmHg 64%
    08:00 +7°C° 0 mm 5 mps 744 mmHg 63%
    09:00 +7°C° 0 mm 5 mps 744 mmHg 64%
    10:00 +8°C° 0 mm 6 mps 744 mmHg 64%
    11:00 +8°C° 0 mm 6 mps 744 mmHg 64%
    12:00 +8°C° 0.2 mm 6 mps 743 mmHg 66%
    13:00 +9°C° 0.2 mm 6 mps 743 mmHg 68%
    14:00 +9°C° 0.2 mm 6 mps 743 mmHg 70%
    15:00 +8°C° 0.3 mm 6 mps 743 mmHg 71%
    16:00 +8°C° 0.3 mm 5 mps 742 mmHg 72%
    17:00 +8°C° 0.3 mm 5 mps 742 mmHg 73%
    18:00 +8°C° 0.3 mm 5 mps 742 mmHg 73%
    19:00 +8°C° 0.3 mm 5 mps 743 mmHg 73%
    20:00 +8°C° 0.3 mm 6 mps 743 mmHg 74%
    21:00 +8°C° 0.4 mm 6 mps 743 mmHg 74%
    22:00 +7°C° 0.4 mm 6 mps 743 mmHg 74%
    23:00 +7°C° 0.4 mm 6 mps 743 mmHg 74%

    24 October, Tuesday

    Time Temperature Precipitation Wind Pressure Humidity
    00:00 +7°C° 0.5 mm 5 mps 743 mmHg 73%
    01:00 +6°C° 0.5 mm 5 mps 743 mmHg 73%
    02:00 +6°C° 0.5 mm 5 mps 743 mmHg 72%
    03:00 +6°C° 0.2 mm 5 mps 743 mmHg 70%
    04:00 +6°C° 0.2 mm 5 mps 743 mmHg 69%
    05:00 +6°C° 0.2 mm 5 mps 743 mmHg 68%
    06:00 +4°C° 0 mm 6 mps 744 mmHg 67%
    07:00 +4°C° 0 mm 6 mps 744 mmHg 67%
    08:00 +4°C° 0 mm 6 mps 744 mmHg 66%
    09:00 +5°C° 0 mm 6 mps 744 mmHg 64%
    10:00 +7°C° 0 mm 6 mps 745 mmHg 61%
    11:00 +8°C° 0 mm 6 mps 745 mmHg 59%
    12:00 +8°C° 0 mm 5 mps 745 mmHg 57%
    13:00 +9°C° 0 mm 5 mps 745 mmHg 56%
    14:00 +10°C° 0 mm 5 mps 745 mmHg 54%
    15:00 +9°C° 0 mm 5 mps 745 mmHg 55%
    16:00 +10°C° 0 mm 4 mps 746 mmHg 56%
    17:00 +8°C° 0 mm 4 mps 746 mmHg 57%
    18:00 +8°C° 0 mm 4 mps 746 mmHg 55%
    19:00 +7°C° 0 mm 5 mps 747 mmHg 54%
    20:00 +7°C° 0 mm 5 mps 747 mmHg 53%
    21:00 +7°C° 0 mm 4 mps 747 mmHg 53%
    22:00 +6°C° 0 mm 4 mps 748 mmHg 54%
    23:00 +6°C° 0 mm 4 mps 748 mmHg 54%

    25 October, Wednesday

    Time Temperature Precipitation Wind Pressure Humidity
    00:00 +6°C° 0 mm 4 mps 748 mmHg 54%
    01:00 +5°C° 0 mm 4 mps 748 mmHg 55%
    02:00 +5°C° 0 mm 4 mps 749 mmHg 55%
    03:00 +5°C° 0 mm 4 mps 749 mmHg 56%
    04:00 +4°C° 0 mm 4 mps 749 mmHg 57%
    05:00 +4°C° 0 mm 4 mps 749 mmHg 58%
    06:00 +4°C° 0 mm 4 mps 749 mmHg 58%
    07:00 +4°C° 0 mm 4 mps 750 mmHg 58%
    08:00 +3°C° 0 mm 5 mps 750 mmHg 58%
    09:00 +5°C° 0 mm 4 mps 750 mmHg 56%
    10:00 +5°C° 0 mm 4 mps 750 mmHg 55%
    11:00 +6°C° 0 mm 4 mps 750 mmHg 53%
    12:00 +7°C° 0 mm 4 mps 750 mmHg 54%
    13:00 +7°C° 0 mm 4 mps 750 mmHg 54%
    14:00 +8°C° 0 mm 4 mps 750 mmHg 54%
    15:00 +7°C° 0 mm 4 mps 750 mmHg 56%
    16:00 +7°C° 0 mm 3 mps 750 mmHg 59%
    17:00 +7°C° 0 mm 3 mps 750 mmHg 61%
    18:00 +7°C° 0 mm 3 mps 751 mmHg 62%
    19:00 +5°C° 0 mm 3 mps 751 mmHg 63%
    20:00 +5°C° 0 mm 3 mps 751 mmHg 64%
    21:00 +5°C° 0 mm 3 mps 751 mmHg 65%
    22:00 +4°C° 0 mm 3 mps 751 mmHg 67%
    23:00 +5°C° 0 mm 2 mps 752 mmHg 68%
    Show more